Home   Weather   Bolton   Past weeks

Flag for United Kingdom Past Weather in Bolton, England, United Kingdom — Yesterday and Last 2 Weeks

Now
52 °F

Rain. Passing clouds.


Feels Like: 51 °F
Forecast: N/A
Wind: 3 mph from North

Location: Manchester Airport

Current Time: Dec 9, 2016 at 9:20:50 pm

Latest Report: Dec 9, 2016 at 8:50 pm


Visibility: 2 mi

Pressure: 30.12 "Hg

Humidity: 94%

Dew Point: 50 °F

Location of BoltonLocation

Past Weather in Bolton — Graph

°F

Bolton Temperature Yesterday

Maximum temperature yesterday: 57 °F (at 10:20 am)
Minimum temperature yesterday: 45 °F (at 8:50 pm)
Average temperature yesterday: 52 °F

High & Low Weather Summary for the Past Weeks

 TemperatureHumidityPressure
High57 °F (Dec 7, 12:20 pm)100% (Nov 25, 12:50 am)30.57 "Hg (Nov 25, 12:50 am)
Low25 °F (Nov 26, 6:50 am)50% (Nov 28, 1:20 pm)30.07 "Hg (Dec 8, 7:50 am)
Average41 °F87%30.31 "Hg
* Reported Nov 24 7:20 pm — Dec 9 7:50 pm, Bolton, Weather by CustomWeather, © 2016

Note: Actual official high and low records may vary slightly from our data, if they occured in-between our weather recording intervals... More about our weather records

Advertising

Bolton Weather History for the Previous 24 Hours

Scroll right to see more
 ConditionsComfort  
Time TempWeatherWind HumidityBarometerVisibility
7:50 pm
Fri, Dec 9
52 °FPartly cloudy.6 mph100%30.12 "Hg2 mi
7:20 pm52 °FPartly cloudy.10 mph100%30.09 "Hg2 mi
6:50 pm54 °FHeavy rain. Passing clouds.14 mph100%30.09 "Hg2 mi
6:20 pm55 °FPassing clouds.10 mph94%30.09 "Hg3 mi
5:50 pm55 °FPartly cloudy.7 mph88%30.07 "HgN/A
5:20 pm55 °FMostly cloudy.10 mph94%30.07 "HgN/A
4:50 pm54 °FPartly cloudy.7 mph100%30.09 "HgN/A
4:20 pm54 °FLight rain. Passing clouds.9 mph100%30.09 "Hg2 mi
3:50 pm55 °FPartly cloudy.12 mph94%30.09 "Hg1 mi
3:20 pm57 °FPartly sunny.12 mph82%30.09 "HgN/A
2:50 pm57 °FBroken clouds.13 mph82%30.09 "HgN/A
2:20 pm57 °FMore clouds than sun.12 mph82%30.09 "HgN/A
1:50 pm57 °FPartly sunny.13 mph82%30.09 "HgN/A
1:20 pm57 °FPartly sunny.13 mph82%30.09 "HgN/A
12:50 pm57 °FScattered showers. Partly sunny.14 mph82%30.09 "HgN/A
12:20 pm57 °FPartly sunny.10 mph82%30.12 "HgN/A
11:50 am55 °FLight rain. Partly sunny.10 mph88%30.12 "HgN/A
10:50 am55 °FPartly sunny.8 mph88%30.12 "HgN/A
10:20 am55 °FPartly sunny.7 mph88%30.12 "HgN/A
9:50 am55 °FScattered showers. Partly sunny.8 mph88%30.12 "HgN/A
9:20 am55 °FPartly sunny.8 mph88%30.12 "HgN/A
8:50 am55 °FPartly sunny.7 mph88%30.12 "HgN/A
8:20 am55 °FPartly sunny.6 mph88%30.15 "HgN/A
7:50 am55 °FPassing clouds.8 mph88%30.12 "HgN/A
7:20 am54 °FPassing clouds.6 mph94%30.12 "HgN/A
6:50 am54 °FPassing clouds.5 mph94%30.12 "HgN/A
6:20 am54 °FPassing clouds.5 mph94%30.12 "Hg6 mi
5:50 am54 °FPassing clouds.6 mph94%30.15 "Hg6 mi
5:20 am54 °FPassing clouds.5 mph94%30.15 "Hg5 mi
4:20 am54 °FLight rain. Passing clouds.6 mph94%30.15 "Hg6 mi
3:50 am54 °FPartly cloudy.6 mph88%30.15 "HgN/A
3:20 am52 °FPassing clouds.5 mph94%30.15 "HgN/A
2:50 am52 °FPassing clouds.5 mph94%30.18 "HgN/A
2:20 am52 °FPassing clouds.5 mph94%30.18 "HgN/A
1:50 am50 °FPassing clouds.5 mph94%30.18 "HgN/A
1:20 am50 °FPassing clouds.3 mph94%30.21 "HgN/A
12:50 am50 °FPassing clouds.2 mph94%30.21 "HgN/A
12:20 am50 °FPassing clouds.3 mph94%30.21 "HgN/A
11:50 pm
Thu, Dec 8
48 °FPassing clouds.6 mph94%30.21 "HgN/A
11:20 pm48 °FPassing clouds.6 mph94%30.21 "HgN/A
10:50 pm46 °FPassing clouds.6 mph93%30.21 "HgN/A
10:20 pm46 °FClear.3 mph93%30.21 "Hg10 mi
9:50 pm46 °FClear.3 mph93%30.24 "Hg10 mi
9:20 pm45 °FClear.3 mph100%30.24 "Hg10 mi
Weather by CustomWeather, © 2016

See weather overviewHow to use our weather pages